< < Back
Terminal Aerodrome Forecast


Current Version              Previous Versions:   1  2  3  4  5  6  7  8  9  

Terminal Aerodrome Forecast

267
FTUS44 KMRX 312320
TAFCHA
TAF
KCHA 312320Z 0100/0124 24007KT P6SM VCSH SCT060 BKN250
     FM010400 35004KT P6SM SCT050 BKN250
     FM011200 02005KT P6SM FEW040=

Latest METAR

113
SAUS80 KWBC 010100 RRE
MTRCHA
METAR KCHA 010053Z 23007KT 10SM FEW055 FEW250 22/13 A2991 RMK AO2 SLP123
T02170133


USA.gov is the U.S. government's official web portal to all federal, state and local government web resources and services.